This demonstration page uses our WeatherBlox Daily Observations layout. Learn more.

Left ArrowRight Arrow

Hourly Observations for August 24, 2020

Temp ( °F °C ) Dew Point ( °F °C ) Humidity (%) Winds ( mph kmh ) Pressure ( in mb ) Visibility ( mi km ) Precip ( " mm )
12:53 am 00:53 Clear 67 19.4 66 18.9 97 97 N N/A 30.06 1018 9 14.48406 N/A
1:53 am 01:53 Clear 67 19.4 66 18.9 97 97 N N/A 30.06 1018 8 12.87472 N/A
2:53 am 02:53 Clear 66 18.9 65 18.3 96 96 N N/A 30.05 1018 7 11.26538 N/A
3:46 am 03:46 Clear with Mist and Fog 65 18.3 64 17.8 97 97 N N/A 30.06 1018 1.25 2.011675 N/A
3:53 am 03:53 Clear with Mist and Fog 65 18.3 64 17.8 97 97 N N/A 30.05 1018 0.75 1.207005 N/A
3:57 am 03:57 Clear with Mist and Fog 65 18.3 64 17.8 97 97 N N/A 30.06 1018 1.75 2.816345 N/A
4:04 am 04:04 Clear with Mist and Fog 65 18.3 64 17.8 97 97 N N/A 30.06 1018 4 6.43736 N/A
4:21 am 04:21 Partly Cloudy 65 18.3 63 17.2 93 93 N N/A 30.06 1018 7 11.26538 N/A
4:33 am 04:33 Mostly Cloudy with Mist and Fog 65 18.3 64 17.8 97 97 N N/A 30.06 1018 2.5 4.02335 N/A
4:37 am 04:37 Mostly Cloudy with Mist and Fog 65 18.3 63 17.2 93 93 N N/A 30.07 1018 0.75 1.207005 N/A
4:53 am 04:53 Mostly Cloudy with Fog 64 17.8 63 17.2 96 96 N N/A 30.06 1018 0.5 0.80467 N/A
5:10 am 05:10 Partly Cloudy with Mist and Fog 64 17.8 63 17.2 96 96 N N/A 30.06 1018 1.25 2.011675 N/A
5:12 am 05:12 Mostly Cloudy with Mist and Fog 64 17.8 63 17.2 96 96 N N/A 30.06 1018 3 4.82802 N/A
5:14 am 05:14 Mostly Cloudy with Mist and Fog 64 17.8 63 17.2 96 96 N N/A 30.07 1018 1.75 2.816345 N/A
5:18 am 05:18 Mostly Cloudy with Mist and Fog 64 17.8 63 17.2 96 96 N N/A 30.06 1018 0.75 1.207005 N/A
5:36 am 05:36 Mostly Cloudy with Mist and Fog 64 17.8 63 17.2 96 96 N N/A 30.07 1018 2 3.21868 N/A
5:39 am 05:39 Mostly Cloudy with Fog 63 17.2 63 17.2 100 100 N N/A 30.07 1018 0.5 0.80467 N/A
5:53 am 05:53 Mostly Cloudy with Mist and Fog 63 17.2 62 16.7 97 97 N N/A 30.07 1018 1 1.60934 N/A
5:55 am 05:55 Partly Cloudy with Mist and Fog 63 17.2 62 16.7 97 97 N N/A 30.07 1018 2 3.21868 N/A
6:04 am 06:04 Partly Cloudy with Mist and Fog 63 17.2 62 16.7 97 97 N N/A 30.08 1019 6 9.65604 N/A
6:34 am 06:34 Mostly Clear with Mist and Fog 63 17.2 62 16.7 97 97 N N/A 30.08 1019 2.5 4.02335 N/A
6:41 am 06:41 Clear 63 17.2 62 16.7 97 97 N N/A 30.08 1019 7 11.26538 N/A
6:53 am 06:53 Clear with Mist and Fog 63 17.2 62 16.7 97 97 N N/A 30.08 1019 3 4.82802 N/A
7:16 am 07:16 Mostly Cloudy with Mist and Fog 64 17.8 63 17.2 96 96 N N/A 30.09 1019 6 9.65604 N/A
7:53 am 07:53 Mostly Cloudy with Mist and Fog 69 20.6 67 19.4 93 93 N N/A 30.09 1019 5 8.0467 N/A
8:53 am 08:53 Mostly Sunny 73 22.8 70 21.1 90 90 N N/A 30.1 1019 8 12.87472 N/A
9:53 am 09:53 Mostly Cloudy 76 24.4 69 20.6 79 79 VRB 3 6 30.11 1020 9 14.48406 N/A
10:53 am 10:53 Mostly Cloudy 81 27.2 71 21.7 72 72 VRB 6 9 30.12 1020 10 16.0934 N/A
11:53 am 11:53 Sunny 84 28.9 70 21.1 63 63 VRB 7 11 30.1 1019 10 16.0934 N/A
12:53 pm 12:53 Sunny 87 30.6 70 21.1 57 57 SW 8 13 30.09 1019 10 16.0934 N/A
1:53 pm 13:53 Mostly Sunny 87 30.6 71 21.7 59 59 VRB 7 11 30.08 1019 10 16.0934 N/A
2:53 pm 14:53 Mostly Sunny 89 31.7 70 21.1 53 53 W 10 17 30.06 1018 10 16.0934 N/A
3:53 pm 15:53 Mostly Sunny 89 31.7 70 21.1 53 53 SW 9 15 30.04 1017 10 16.0934 N/A
4:53 pm 16:53 Sunny 88 31.1 70 21.1 55 55 VRB 6 9 30.02 1017 10 16.0934 N/A
5:53 pm 17:53 Mostly Sunny 87 30.6 71 21.7 59 59 SW 8 13 30.02 1017 10 16.0934 N/A
6:53 pm 18:53 Sunny 86 30 70 21.1 59 59 W 6 9 30.01 1016 10 16.0934 N/A
7:53 pm 19:53 Sunny 82 27.8 70 21.1 67 67 VRB 5 7 30.01 1016 10 16.0934 N/A
8:53 pm 20:53 Mostly Cloudy 79 26.1 71 21.7 77 77 N N/A 30.03 1017 10 16.0934 N/A
9:53 pm 21:53 Clear 75 23.9 71 21.7 88 88 N N/A 30.04 1017 10 16.0934 0.001 0.001
10:53 pm 22:53 Mostly Clear 74 23.3 70 21.1 88 88 N N/A 30.05 1018 10 16.0934 N/A
11:53 pm 23:53 Clear 73 22.8 70 21.1 90 90 N N/A 30.05 1018 10 16.0934 N/A

Powered by AerisWeather